Red Bluff, CA

11:47 PM PST on December 15, 2019 (GMT -0800)
Red Bluff Municipal

Weather History for KRBL - October, 2019

Change the Weather History Date:

Thursday, October 31, 2019

  Actual Average Record
Temperature  
Mean Temperature 54 °F -  
Max Temperature 75 °F 72 °F 92 °F (1966)
Min Temperature 34 °F 46 °F 30 °F (1935)
Degree Days  
Heating Degree Days 10    
Growing Degree Days 4 (Base 50)    
Moisture  
Dew Point 10 °F    
Average Humidity 20    
Maximum Humidity 37    
Minimum Humidity 4    
Precipitation  
Precipitation 0.00 in - - ()
Sea Level Pressure  
Sea Level Pressure 30.21 in    
Wind  
Wind Speed 7 mph (NNW)    
Max Wind Speed 12 mph    
Max Gust Speed -    
Visibility 10 miles    
Events      
Averages and records for this station are not official NWS values.
T = Trace of Precipitation, MM = Missing Value Source: NWS Daily Summary

Daily Weather History Graph

Daily Weather History Graph

Search for Another Location

Airport or City:

Astronomy

Oct. 31, 2019 Rise Set
Actual Time 7:37 AM PDT 6:07 PM PDT
Civil Twilight 7:08 AM PDT 6:35 PM PDT
Nautical Twilight 6:36 AM PDT 7:07 PM PDT
Astronomical Twilight 6:05 AM PDT 7:39 PM PDT
Moon 11:31 AM PDT (10/31) 9:08 PM PDT (10/31)
Length of Visible Light 11h 26m
Length of Day
10h 30m
Waxing Crescent, 16% of the Moon is Illuminated
Oct 31
Waxing Crescent
Nov 4
First Quarter
Nov 12
Full
Nov 19
Last Quarter
Nov 26
New

Hourly Weather History & Observations

Time (PDT) Temp. Windchill Dew Point Humidity Pressure Visibility Wind Dir Wind Speed Gust Speed Precip Events Conditions
12:54 AM 37.9 °F 33.5 °F 8.1 °F 29% 30.27 in 10.0 mi NW 5.8 mph - N/A   Clear
1:54 AM 37.9 °F 33.5 °F 8.1 °F 29% 30.27 in 10.0 mi NW 5.8 mph - N/A   Clear
2:54 AM 36.0 °F 31.1 °F 9.0 °F 33% 30.27 in 10.0 mi NW 5.8 mph - N/A   Clear
3:54 AM 37.0 °F 32.4 °F 8.1 °F 30% 30.27 in 10.0 mi NW 5.8 mph - N/A   Clear
4:54 AM 37.9 °F 32.7 °F 8.1 °F 29% 30.27 in 10.0 mi NW 6.9 mph - N/A   Clear
5:54 AM 37.9 °F 32.1 °F 9.0 °F 30% 30.27 in 10.0 mi NW 8.1 mph - N/A   Clear
6:54 AM 35.1 °F 29.3 °F 10.0 °F 35% 30.28 in 10.0 mi NNW 6.9 mph - N/A   Clear
7:54 AM 35.1 °F 31.0 °F 10.9 °F 37% 30.28 in 10.0 mi North 4.6 mph - N/A   Clear
8:54 AM 44.1 °F 40.8 °F 10.9 °F 26% 30.29 in 10.0 mi North 5.8 mph - N/A   Clear
9:54 AM 53.1 °F - 14.0 °F 21% 30.28 in 10.0 mi North 6.9 mph - N/A   Clear
10:54 AM 60.1 °F - 10.0 °F 14% 30.27 in 10.0 mi NNE 11.5 mph - N/A   Clear
11:54 AM 64.9 °F - 8.1 °F 11% 30.25 in 10.0 mi North 9.2 mph - N/A   Clear
12:54 PM 68.0 °F - 9.0 °F 10% 30.21 in 10.0 mi NNW 10.4 mph - N/A   Clear
1:54 PM 71.1 °F - 8.1 °F 9% 30.18 in 10.0 mi North 10.4 mph - N/A   Clear
2:54 PM 73.0 °F - 8.1 °F 8% 30.16 in 10.0 mi NNE 4.6 mph - N/A   Clear
3:54 PM 73.9 °F - 7.0 °F 8% 30.15 in 10.0 mi NNE 6.9 mph - N/A   Clear
4:54 PM 73.0 °F - 6.1 °F 7% 30.14 in 10.0 mi East 4.6 mph - N/A   Clear
5:54 PM 66.9 °F - 9.0 °F 10% 30.13 in 10.0 mi Calm Calm - N/A   Clear
6:54 PM 63.0 °F - 10.9 °F 13% 30.13 in 10.0 mi SSW 3.5 mph - N/A   Clear
7:54 PM 52.0 °F - 14.0 °F 22% 30.14 in 10.0 mi West 5.8 mph - N/A   Clear
8:54 PM 50.0 °F - 15.1 °F 25% 30.15 in 10.0 mi NW 6.9 mph - N/A   Clear
9:54 PM 46.0 °F 43.1 °F 15.1 °F 29% 30.15 in 10.0 mi NW 5.8 mph - N/A   Clear
10:54 PM 46.0 °F 43.1 °F 14.0 °F 28% 30.16 in 10.0 mi NW 5.8 mph - N/A   Clear
11:54 PM 46.9 °F - 14.0 °F 27% 30.15 in 10.0 mi NW 10.4 mph - N/A   Clear